Location: Brede
(50.9167°N, 0.6000°E)
Time: 15:37:08
(UTC+00:00)

Tiros 1 despin weight - Visible Passes

Search period start: 26 November 2020 00:00
Search period end: 06 December 2020 00:00
Orbit: 593 x 642 km, 48.2° (Epoch: 25 November)

Date Brightness Start Highest point End Pass type
(mag) Time Alt. Az. Time Alt. Az. Time Alt. Az.
26 Nov ? 17:08:07 10° W 17:12:39 49° SSW 17:17:08 10° ESE visible
26 Nov ? 18:50:07 10° W 18:53:33 21° SW 18:55:04 18° S visible
27 Nov ? 17:24:34 10° W 17:28:53 37° SSW 17:33:10 10° SE visible
27 Nov ? 19:07:32 10° WSW 19:09:33 13° SW 19:11:24 10° SSW visible
28 Nov ? 17:41:10 10° W 17:45:04 26° SSW 17:48:55 10° SSE visible
29 Nov ? 17:58:05 10° WSW 18:01:07 17° SW 18:04:07 10° S visible
30 Nov ? 16:32:20 10° W 16:36:32 33° SSW 16:40:40 10° SE visible
01 Dec ? 16:49:01 10° W 16:52:38 22° SW 16:56:15 10° SSE visible
02 Dec ? 17:06:13 10° WSW 17:08:39 14° SW 17:11:05 10° S visible
